tititudorancea.com
Station Historical Data
Daily Summary for October 7, 2018 Units:  Metric    English   Both
« Previous Day
Next Day »
Daily Weekly Monthly Yearly Custom
  High: Low: Average:
Temperature: -17.8 °C 13.7 °C 17.1 °C
Dew Point: -17.8 °C 6.4 °C 8.4 °C
Humidity: Humidity % 38 % 58 %
Wind Speed: 0 km/h 0 km/h 8.7 km/h
Wind Gust: 0 km/h - -
Wind:- - SE
Pressure: 0 hPa 1017.8 hPa -
Precipitation: 0 mm    
Historical Graphs
 
 
Ararat weather Find more about Weather in Ararat, AU


 



 


Tabular Data for October 7, 2018
Time Temperature Dew Point Pressure Wind Wind Speed Wind Gust Humidity Rainfall Rate (Hourly)
-17.8 °C -17.8 °C 0 hPa Calm     Humidity % 0 mm
00:04 14.6 °C 6.9 °C 1020.5 hPa NNE 5.6 km/h 5.6 km/h 60 % 0 mm
00:09 14.6 °C 6.9 °C 1020.5 hPa NNE 5.6 km/h 2.6 km/h 60 % 0 mm
00:14 14.6 °C 6.9 °C 1020.5 hPa NNE 5.6 km/h 5.1 km/h 60 % 0 mm
00:19 14.6 °C 6.9 °C 1020.5 hPa NNE 5.6 km/h 3.9 km/h 60 % 0 mm
00:24 14.7 °C 7 °C 1020.5 hPa NNE 5.6 km/h 4.8 km/h 60 % 0 mm
00:29 14.6 °C 6.9 °C 1020.5 hPa NNE 5.6 km/h 4.2 km/h 60 % 0 mm
00:34 14.6 °C 6.9 °C 1020.5 hPa NNE 3.7 km/h 2.3 km/h 60 % 0 mm
00:39 14.4 °C 6.8 °C 1020.2 hPa NNE 5.6 km/h 1.1 km/h 60 % 0 mm
00:44 14.4 °C 6.9 °C 1020.2 hPa NNE 5.6 km/h 3.2 km/h 61 % 0 mm
00:49 14.3 °C 6.9 °C 1020.2 hPa NNE 3.2 km/h 0.6 km/h 61 % 0 mm
00:54 14.3 °C 6.8 °C 1020.2 hPa NNE 3.7 km/h 3.4 km/h 61 % 0 mm
00:59 14.3 °C 6.9 °C 1020.2 hPa NNE 5.6 km/h 2.4 km/h 61 % 0 mm
01:04 14.3 °C 6.9 °C 1020.2 hPa NNE 4.8 km/h 3.5 km/h 61 % 0 mm
01:09 14.4 °C 6.9 °C 1019.9 hPa NNE 5.6 km/h 3.9 km/h 61 % 0 mm
01:14 14.4 °C 6.9 °C 1019.9 hPa NNE 5.6 km/h 2.3 km/h 61 % 0 mm
01:19 14.4 °C 6.9 °C 1019.9 hPa NNE 5.6 km/h 4.5 km/h 61 % 0 mm
01:24 14.4 °C 7 °C 1019.9 hPa NNE 5.6 km/h 4.3 km/h 61 % 0 mm
01:29 14.6 °C 6.9 °C 1019.9 hPa NNE 5.6 km/h 4.8 km/h 60 % 0 mm
01:34 14.6 °C 6.9 °C 1019.9 hPa NNE 5.6 km/h 3.5 km/h 60 % 0 mm
01:39 14.6 °C 6.9 °C 1019.9 hPa NNE 6.4 km/h 5.3 km/h 60 % 0 mm
01:44 14.6 °C 6.9 °C 1019.9 hPa NNE 5.6 km/h 4.8 km/h 60 % 0 mm
01:49 14.6 °C 6.9 °C 1019.9 hPa NNE 5.6 km/h 5.1 km/h 60 % 0 mm
01:54 14.6 °C 6.9 °C 1019.5 hPa NNE 6.4 km/h 5.3 km/h 60 % 0 mm
01:59 14.6 °C 6.6 °C 1019.5 hPa NNE 5.6 km/h 3.4 km/h 59 % 0 mm
03:04 14.6 °C 6.7 °C 1019.5 hPa NNE 7.4 km/h 4.7 km/h 59 % 0 mm
03:09 14.7 °C 6.7 °C 1019.5 hPa NNE 9.3 km/h 5.8 km/h 59 % 0 mm
03:14 14.7 °C 6.7 °C 1019.5 hPa NNE 6.4 km/h 3.7 km/h 59 % 0 mm
03:19 14.7 °C 6.8 °C 1019.5 hPa NNE 6.4 km/h 3.1 km/h 59 % 0 mm
03:24 14.6 °C 6.7 °C 1019.5 hPa NNE 8 km/h 3.9 km/h 59 % 0 mm
03:29 14.5 °C 6.6 °C 1019.5 hPa NNE 5.6 km/h 3.5 km/h 59 % 0 mm
03:34 14.4 °C 6.5 °C 1019.5 hPa NNE 5.6 km/h 3.9 km/h 59 % 0 mm
03:39 14.4 °C 6.5 °C 1019.5 hPa NNE 7.4 km/h 5.3 km/h 59 % 0 mm
03:44 14.4 °C 6.5 °C 1019.5 hPa NNE 5.6 km/h 3.9 km/h 59 % 0 mm
03:49 14.4 °C 6.5 °C 1019.5 hPa NNE 5.6 km/h 4.7 km/h 59 % 0 mm
03:54 14.4 °C 6.5 °C 1019.5 hPa NNE 5.6 km/h 4.8 km/h 59 % 0 mm
03:59 14.4 °C 6.5 °C 1019.5 hPa NNE 6.4 km/h 6.4 km/h 59 % 0 mm
04:04 14.5 °C 6.6 °C 1019.2 hPa NNE 5.6 km/h 4.7 km/h 59 % 0 mm
04:09 14.5 °C 6.6 °C 1019.5 hPa NNE 8 km/h 5.3 km/h 59 % 0 mm
04:14 14.6 °C 6.4 °C 1019.2 hPa NNE 6.4 km/h 6.4 km/h 58 % 0 mm
04:19 14.7 °C 6.6 °C 1019.5 hPa NNE 9.3 km/h 4.2 km/h 58 % 0 mm
04:24 14.8 °C 6.6 °C 1019.5 hPa NNE 6.4 km/h 3.5 km/h 58 % 0 mm
04:29 14.8 °C 6.6 °C 1019.5 hPa NNE 6.4 km/h 3.2 km/h 58 % 0 mm
04:34 14.9 °C 6.4 °C 1019.5 hPa NNE 7.4 km/h 5.5 km/h 57 % 0 mm
04:39 14.9 °C 6.5 °C 1019.5 hPa NNE 9.3 km/h 7.7 km/h 57 % 0 mm
04:44 14.9 °C 6.7 °C 1019.5 hPa NNE 7.4 km/h 4.3 km/h 58 % 0 mm
04:49 14.9 °C 6.5 °C 1019.5 hPa NNE 7.4 km/h 5.8 km/h 57 % 0 mm
04:54 14.9 °C 6.5 °C 1019.5 hPa NNE 7.4 km/h 6.4 km/h 57 % 0 mm
04:59 14.9 °C 6.4 °C 1019.5 hPa NNE 5.6 km/h 4.3 km/h 57 % 0 mm
05:04 14.7 °C 6.6 °C 1019.2 hPa NNE 5.6 km/h 4.3 km/h 58 % 0 mm
05:09 14.5 °C 6.6 °C 1019.2 hPa NNE 5.6 km/h 3.4 km/h 59 % 0 mm
05:14 14.3 °C 6.6 °C 1019.2 hPa NNE 5.6 km/h 5.3 km/h 60 % 0 mm
05:19 14.1 °C 6.4 °C 1019.2 hPa NNE 7.4 km/h 4.3 km/h 60 % 0 mm
05:24 13.9 °C 6.6 °C 1019.2 hPa NNE 5.6 km/h 3.1 km/h 61 % 0 mm
05:29 13.8 °C 6.4 °C 1019.5 hPa NNE 5.6 km/h 4 km/h 61 % 0 mm
05:34 13.8 °C 6.7 °C 1019.5 hPa NNE 5.6 km/h 3.9 km/h 62 % 0 mm
05:39 13.8 °C 6.6 °C 1019.5 hPa NNE 5.6 km/h 1.9 km/h 62 % 0 mm
05:44 13.8 °C 6.6 °C 1019.5 hPa NNE 5.6 km/h 2.1 km/h 62 % 0 mm
05:49 13.8 °C 6.6 °C 1019.5 hPa NNE 3.7 km/h 2.1 km/h 62 % 0 mm
05:54 13.8 °C 6.6 °C 1019.5 hPa NNE 5.6 km/h 4.2 km/h 62 % 0 mm
05:59 13.8 °C 6.7 °C 1019.5 hPa NNE 5.6 km/h 2.4 km/h 62 % 0 mm
06:04 13.8 °C 6.7 °C 1019.5 hPa NNE 5.6 km/h 2.4 km/h 62 % 0 mm
06:09 13.8 °C 6.7 °C 1019.5 hPa NNE 5.6 km/h 3.5 km/h 62 % 0 mm
06:14 13.8 °C 6.9 °C 1019.5 hPa NNE 5.6 km/h 2.4 km/h 63 % 0 mm
06:19 13.8 °C 6.8 °C 1019.5 hPa NNE 3.7 km/h 0.6 km/h 63 % 0 mm
06:24 13.8 °C 7.1 °C 1019.5 hPa NNE 1.9 km/h   64 % 0 mm
06:29 13.8 °C 7.3 °C 1019.9 hPa NNE 1.9 km/h 0.3 km/h 65 % 0 mm
06:34 13.7 °C 7.5 °C 1019.9 hPa NNE 3.7 km/h 2.4 km/h 66 % 0 mm
06:39 13.8 °C 7.9 °C 1019.9 hPa NNE 5.6 km/h 2.3 km/h 68 % 0 mm
06:44 13.8 °C 7.9 °C 1019.9 hPa NNE 5.6 km/h 3.2 km/h 68 % 0 mm
06:49 13.8 °C 8 °C 1020.2 hPa NNE 7.4 km/h 6.3 km/h 68 % 0 mm
06:54 13.9 °C 8.1 °C 1020.2 hPa NNE 5.6 km/h 4.7 km/h 68 % 0 mm
06:59 13.9 °C 8.1 °C 1020.2 hPa NNE 5.6 km/h 5.1 km/h 68 % 0 mm
07:04 13.9 °C 8.1 °C 1020.2 hPa NNE 8 km/h 5.1 km/h 68 % 0 mm
07:09 13.8 °C 8.2 °C 1020.2 hPa NNE 7.4 km/h 5.1 km/h 69 % 0 mm
07:14 13.7 °C 8.1 °C 1020.2 hPa NNE 5.6 km/h 4.5 km/h 69 % 0 mm
07:19 13.7 °C 8.1 °C 1020.2 hPa NNE 7.4 km/h 3.9 km/h 69 % 0 mm
07:24 13.7 °C 8.1 °C 1020.2 hPa NNE 5.6 km/h 4.3 km/h 69 % 0 mm
07:29 13.7 °C 7.9 °C 1020.2 hPa NNE 7.4 km/h 6.3 km/h 68 % 0 mm
07:34 13.8 °C 7.9 °C 1020.2 hPa NNE 11.1 km/h 4.7 km/h 68 % 0 mm
07:39 13.8 °C 8 °C 1020.2 hPa NNE 7.4 km/h 4.3 km/h 68 % 0 mm
07:44 13.9 °C 7.9 °C 1020.2 hPa NNE 6.4 km/h 4.5 km/h 67 % 0 mm
07:49 14 °C 7.7 °C 1020.2 hPa NNE 9.3 km/h 4.3 km/h 66 % 0 mm
07:54 14.2 °C 7.9 °C 1020.5 hPa NNE 5.6 km/h 4.8 km/h 66 % 0 mm
07:59 14.3 °C 7.8 °C 1020.5 hPa NNE 5.6 km/h 3.1 km/h 65 % 0 mm
08:04 14.4 °C 7.7 °C 1020.5 hPa NNE 5.6 km/h 4.5 km/h 64 % 0 mm
08:09 14.6 °C 7.7 °C 1020.5 hPa NNE 7.4 km/h 5 km/h 63 % 0 mm
08:14 14.7 °C 7.7 °C 1020.5 hPa NNE 7.4 km/h 5.6 km/h 63 % 0 mm
08:19 14.8 °C 7.6 °C 1020.5 hPa NNE 7.4 km/h 3.4 km/h 62 % 0 mm
08:24 14.9 °C 7.7 °C 1020.5 hPa NNE 7.4 km/h 3.2 km/h 62 % 0 mm
08:29 15.1 °C 7.6 °C 1020.5 hPa NNE 5.6 km/h 4 km/h 61 % 0 mm
08:34 15.2 °C 7.7 °C 1020.5 hPa NNE 5.6 km/h 3.4 km/h 61 % 0 mm
08:39 15.3 °C 7.6 °C 1020.5 hPa NNE 8 km/h 5.1 km/h 60 % 0 mm
08:44 15.5 °C 7.8 °C 1020.5 hPa NNE 7.4 km/h 7.4 km/h 60 % 0 mm
08:49 15.7 °C 7.9 °C 1020.5 hPa NNE 7.4 km/h 3.7 km/h 60 % 0 mm
08:54 15.8 °C 7.8 °C 1020.5 hPa NNE 5.6 km/h 3.2 km/h 59 % 0 mm
08:59 16.1 °C 8.1 °C 1020.5 hPa NNE 3.7 km/h 1.1 km/h 59 % 0 mm
09:04 16.3 °C 8.2 °C 1020.5 hPa NNE 3.7 km/h 0.5 km/h 59 % 0 mm
09:09 16.6 °C 8.3 °C 1020.5 hPa NNE 6.4 km/h 4.3 km/h 58 % 0 mm
09:14 17 °C 8.4 °C 1020.5 hPa NNE 5.6 km/h 5.8 km/h 57 % 0 mm
09:19 17.4 °C 8.3 °C 1020.5 hPa NNE 11.1 km/h 5.5 km/h 55 % 0 mm
09:24 17.6 °C 8.4 °C 1020.5 hPa NNE 7.4 km/h 6.1 km/h 55 % 0 mm
09:29 17.7 °C 8 °C 1020.5 hPa NNE 18.5 km/h 8.4 km/h 53 % 0 mm
09:34 17.8 °C 7.8 °C 1020.5 hPa NNE 16.7 km/h 7.1 km/h 52 % 0 mm
09:39 18 °C 7.4 °C 1020.5 hPa NNE 14.5 km/h 10.5 km/h 50 % 0 mm
09:44 18.1 °C 7.8 °C 1020.5 hPa NNE 9.7 km/h 7.6 km/h 51 % 0 mm
09:49 18.3 °C 7.7 °C 1020.5 hPa NNE 14.5 km/h 10.6 km/h 50 % 0 mm
09:54 18.3 °C 7.4 °C 1020.5 hPa NNE 17.7 km/h 10.1 km/h 49 % 0 mm
09:59 18.3 °C 7.1 °C 1020.5 hPa North 25.9 km/h 16.1 km/h 48 % 0 mm
10:04 18.4 °C 7.2 °C 1020.5 hPa NNE 20.4 km/h 10.6 km/h 48 % 0 mm
10:08 18.4 °C 7.2 °C 1020.5 hPa NNE 25.9 km/h 15 km/h 48 % 0 mm
10:24 18.9 °C 7.3 °C 1020.5 hPa North 24.1 km/h 13.2 km/h 47 % 0 mm
10:29 19.3 °C 7.7 °C 1020.5 hPa NNE 18.5 km/h 8.4 km/h 47 % 0 mm
10:34 19.8 °C 7.5 °C 1020.5 hPa North 22.5 km/h 15.9 km/h 45 % 0 mm
10:39 19.9 °C 7.3 °C 1020.5 hPa North 20.4 km/h 15.3 km/h 44 % 0 mm
10:44 20.1 °C 7.4 °C 1020.5 hPa North 22.2 km/h 15 km/h 44 % 0 mm
10:49 20.2 °C 7.8 °C 1020.5 hPa North 19.3 km/h 18 km/h 45 % 0 mm
10:54 20.3 °C 8 °C 1020.5 hPa NNE 14.5 km/h 13 km/h 45 % 0 mm
10:59 20.5 °C 7.5 °C 1020.5 hPa NNE 29.6 km/h 16.6 km/h 43 % 0 mm
11:04 20.3 °C 7.7 °C 1020.5 hPa NNE 20.4 km/h 15.4 km/h 44 % 0 mm
11:09 20.6 °C 7.2 °C 1020.2 hPa NNE 31.5 km/h 17.7 km/h 42 % 0 mm
11:14 20.7 °C 6.9 °C 1020.5 hPa NNE 18.5 km/h 17.9 km/h 41 % 0 mm
11:19 20.8 °C 7.1 °C 1020.5 hPa NNW 24.1 km/h 15.4 km/h 41 % 0 mm
11:24 20.6 °C 6.9 °C 1020.2 hPa NNE 18.5 km/h 16.7 km/h 41 % 0 mm
11:29 20.7 °C 7.3 °C 1020.5 hPa North 25.9 km/h 16.4 km/h 42 % 0 mm
11:34 20.8 °C 7.4 °C 1020.2 hPa North 18.5 km/h 14.3 km/h 42 % 0 mm
11:39 21.2 °C 7.4 °C 1020.2 hPa NNE 22.2 km/h 14.3 km/h 41 % 0 mm
11:44 21.3 °C 7.5 °C 1020.2 hPa NNE 24.1 km/h 14 km/h 41 % 0 mm
11:49 21.2 °C 7.4 °C 1020.2 hPa North 24.1 km/h 12.7 km/h 41 % 0 mm
11:54 21.2 °C 7.4 °C 1019.9 hPa NNE 29.6 km/h 21.1 km/h 41 % 0 mm
11:59 21.3 °C 7.6 °C 1019.9 hPa NNE 22.5 km/h 19.8 km/h 41 % 0 mm
12:04 21.6 °C 7.8 °C 1019.9 hPa NE 18.5 km/h 18.5 km/h 41 % 0 mm
12:09 22 °C 8.1 °C 1019.9 hPa NNE 22.5 km/h 10.6 km/h 41 % 0 mm
12:14 22 °C 7.4 °C 1019.9 hPa North 20.4 km/h 15 km/h 39 % 0 mm
12:19 21.9 °C 7.7 °C 1019.9 hPa NNW 18.5 km/h 15.1 km/h 40 % 0 mm
12:24 22.2 °C 7.9 °C 1019.5 hPa North 20.4 km/h 12.9 km/h 40 % 0 mm
12:29 22.5 °C 8.2 °C 1019.5 hPa North 18.5 km/h 13.8 km/h 40 % 0 mm
12:34 22.6 °C 7.6 °C 1019.5 hPa North 22.2 km/h 18.8 km/h 38 % 0 mm
12:39 22.1 °C 7.1 °C 1019.5 hPa NNE 18.5 km/h 13.8 km/h 38 % 0 mm
12:44 22.1 °C 7.1 °C 1019.2 hPa North 25.9 km/h 15 km/h 38 % 0 mm
12:49 22.2 °C 7.6 °C 1019.2 hPa NNE 24.1 km/h 14.3 km/h 39 % 0 mm
12:54 22.3 °C 7.7 °C 1019.2 hPa North 20.4 km/h 9.8 km/h 39 % 0 mm
12:59 22.4 °C 7.4 °C 1019.2 hPa North 22.2 km/h 16.1 km/h 38 % 0 mm
13:04 22.2 °C 7.2 °C 1019.2 hPa NNW 29.6 km/h 14.5 km/h 38 % 0 mm
13:09 21.6 °C 6.7 °C 1019.2 hPa NW 18.5 km/h 7.9 km/h 38 % 0 mm
13:14 21.8 °C 7.2 °C 1019.2 hPa NW 18.5 km/h 10.9 km/h 39 % 0 mm
13:19 21.8 °C 7.3 °C 1019.2 hPa NW 27.8 km/h 16.7 km/h 39 % 0 mm
13:24 21.6 °C 7 °C 1019.2 hPa NW 14.8 km/h 7.2 km/h 39 % 0 mm
13:29 21.7 °C 7.1 °C 1019.2 hPa NNW 18.5 km/h 13.2 km/h 39 % 0 mm
13:34 21.6 °C 7 °C 1019.2 hPa NNW 18.5 km/h 12.6 km/h 39 % 0 mm
13:39 21.8 °C 7.2 °C 1019.2 hPa NNE 22.2 km/h 11.7 km/h 39 % 0 mm
13:44 22 °C 7 °C 1018.8 hPa NNW 24.1 km/h 12.6 km/h 38 % 0 mm
13:49 21.9 °C 6.9 °C 1018.8 hPa North 25.9 km/h 18.3 km/h 38 % 0 mm
13:54 21.9 °C 7.3 °C 1018.8 hPa NW 22.2 km/h 13.5 km/h 39 % 0 mm
13:59 21.7 °C 7.2 °C 1018.8 hPa NW 24.1 km/h 10.1 km/h 39 % 0 mm
14:04 21.6 °C 6.7 °C 1018.8 hPa NW 20.4 km/h 17.5 km/h 38 % 0 mm
14:09 21.6 °C 7.1 °C 1018.8 hPa WNW 17.7 km/h 13.5 km/h 39 % 0 mm
14:14 21.8 °C 7.6 °C 1018.8 hPa NNW 14.8 km/h 13 km/h 40 % 0 mm
14:19 21.7 °C 7.1 °C 1018.8 hPa NW 14.8 km/h 9 km/h 39 % 0 mm
14:24 21.5 °C 6.9 °C 1018.8 hPa NW 18.5 km/h 18.8 km/h 39 % 0 mm
14:29 21.3 °C 7.5 °C 1018.8 hPa NW 16.7 km/h 10.3 km/h 41 % 0 mm
14:34 21.2 °C 7.1 °C 1018.8 hPa North 14.8 km/h 10.5 km/h 40 % 0 mm
14:39 21.1 °C 7.7 °C 1018.8 hPa North 18.5 km/h 12.2 km/h 42 % 0 mm
14:44 20.9 °C 8.2 °C 1018.8 hPa WNW 18.5 km/h 12.2 km/h 44 % 0 mm
14:49 20.7 °C 8 °C 1018.8 hPa WNW 20.9 km/h 13.8 km/h 44 % 0 mm
14:54 20.2 °C 8.8 °C 1018.8 hPa West 18.5 km/h 13.7 km/h 48 % 0 mm
14:59 19.8 °C 9.1 °C 1018.8 hPa West 16.7 km/h 9.5 km/h 50 % 0 mm
15:04 19.6 °C 9.5 °C 1018.8 hPa North 14.8 km/h 9.5 km/h 52 % 0 mm
15:09 19.7 °C 9.3 °C 1018.8 hPa West 13 km/h 10.8 km/h 51 % 0 mm
15:14 19.8 °C 9.4 °C 1018.8 hPa West 16.7 km/h 11.4 km/h 51 % 0 mm
15:19 19.9 °C 9.4 °C 1018.8 hPa West 16.7 km/h 6.9 km/h 51 % 0 mm
15:24 19.9 °C 9.5 °C 1018.8 hPa West 11.1 km/h 7.6 km/h 51 % 0 mm
15:29 20.1 °C 9.3 °C 1018.5 hPa North 12.9 km/h 10.8 km/h 50 % 0 mm
15:34 20.1 °C 9.6 °C 1018.5 hPa West 16.1 km/h 11.1 km/h 51 % 0 mm
15:39 20.1 °C 9.9 °C 1018.5 hPa West 11.1 km/h 7.1 km/h 52 % 0 mm
15:44 20.1 °C 9.9 °C 1018.5 hPa WSW 11.1 km/h 5.6 km/h 52 % 0 mm
15:49 20.3 °C 10.4 °C 1018.5 hPa West 11.1 km/h 3.9 km/h 53 % 0 mm
15:54 20.3 °C 9.8 °C 1018.5 hPa West 20.4 km/h 6.4 km/h 51 % 0 mm
15:59 20.3 °C 9.6 °C 1018.5 hPa North 16.7 km/h 12.2 km/h 50 % 0 mm
16:04 20.1 °C 9.3 °C 1018.5 hPa West 16.7 km/h 14.3 km/h 50 % 0 mm
16:09 19.9 °C 9.2 °C 1018.5 hPa WNW 16.7 km/h 15.4 km/h 50 % 0 mm
16:14 19.9 °C 9.4 °C 1018.5 hPa WNW 14.8 km/h 8.5 km/h 51 % 0 mm
16:19 19.7 °C 10.1 °C 1018.2 hPa WNW 9.3 km/h 6.9 km/h 54 % 0 mm
16:24 19.6 °C 9.8 °C 1018.2 hPa WNW 13 km/h 5.3 km/h 53 % 0 mm
16:29 19.7 °C 9.6 °C 1018.2 hPa North 7.4 km/h 6.1 km/h 52 % 0 mm
16:34 19.8 °C 9.3 °C 1018.2 hPa WNW 7.4 km/h 6.3 km/h 51 % 0 mm
16:39 19.9 °C 9.2 °C 1018.2 hPa WNW 5.6 km/h 4.5 km/h 50 % 0 mm
16:44 20 °C 9.8 °C 1018.2 hPa WNW 7.4 km/h 1.9 km/h 52 % 0 mm
16:49 20.1 °C 9 °C 1018.2 hPa North 7.4 km/h 5.5 km/h 49 % 0 mm
16:54 20.1 °C 9.1 °C 1018.2 hPa WNW 5.6 km/h 6 km/h 49 % 0 mm
16:59 20.2 °C 9.7 °C 1018.2 hPa WNW 5.6 km/h 3.1 km/h 51 % 0 mm
17:04 20.2 °C 9.2 °C 1017.8 hPa North 5.6 km/h 3.2 km/h 49 % 0 mm
17:09 20.3 °C 8.6 °C 1017.8 hPa North 3.7 km/h 1 km/h 47 % 0 mm
17:14 20.3 °C 8.6 °C 1017.8 hPa Calm     47 % 0 mm
17:19 20.4 °C 8.4 °C 1017.8 hPa Calm     46 % 0 mm
17:24 20.5 °C 9.1 °C 1017.8 hPa North 3.7 km/h 2.1 km/h 48 % 0 mm
17:29 20.5 °C 8.8 °C 1017.8 hPa Calm     47 % 0 mm
17:34 20.4 °C 8.7 °C 1017.8 hPa WNW 3.2 km/h 1.1 km/h 47 % 0 mm
17:39 20.6 °C 8.9 °C 1017.8 hPa WNW 5.6 km/h 2.7 km/h 47 % 0 mm
17:44 20.8 °C 9.1 °C 1017.8 hPa WNW 3.7 km/h 0.3 km/h 47 % 0 mm
17:49 20.9 °C 9.2 °C 1017.8 hPa WNW 3.7 km/h 2.9 km/h 47 % 0 mm
17:54 20.7 °C 9.6 °C 1017.8 hPa WNW 5.6 km/h 2.7 km/h 49 % 0 mm
17:59 20.5 °C 10.3 °C 1018.2 hPa WNW 5.6 km/h 4.5 km/h 52 % 0 mm
18:04 20.3 °C 10.4 °C 1018.2 hPa North 6.4 km/h 4.2 km/h 53 % 0 mm
18:09 20.2 °C 10.6 °C 1018.2 hPa WNW 5.6 km/h 4.8 km/h 54 % 0 mm
18:14 20 °C 10.7 °C 1018.2 hPa WNW 5.6 km/h 2.3 km/h 55 % 0 mm
18:19 19.9 °C 10.6 °C 1018.2 hPa WNW 3.7 km/h 1.9 km/h 55 % 0 mm
18:24 19.8 °C 10.5 °C 1018.2 hPa WNW 5.6 km/h 3.7 km/h 55 % 0 mm
18:29 19.8 °C 10.7 °C 1018.2 hPa Calm     56 % 0 mm
18:34 19.8 °C 10.7 °C 1018.2 hPa WNW 1.9 km/h   56 % 0 mm
18:39 19.8 °C 10.5 °C 1018.2 hPa Calm     55 % 0 mm
18:44 19.7 °C 10.7 °C 1018.2 hPa WNW 1.9 km/h   56 % 0 mm
18:49 19.7 °C 10.9 °C 1018.2 hPa Calm     57 % 0 mm
18:54 19.6 °C 11.1 °C 1017.8 hPa North 5.6 km/h 1.9 km/h 58 % 0 mm
18:59 19.4 °C 11.2 °C 1017.8 hPa Calm     59 % 0 mm
19:04 19.3 °C 11.1 °C 1017.8 hPa Calm     59 % 0 mm
19:09 19.1 °C 10.9 °C 1018.2 hPa Calm     59 % 0 mm
19:14 18.9 °C 10.9 °C 1018.2 hPa Calm     60 % 0 mm
19:19 18.6 °C 10.9 °C 1018.2 hPa WNW 3.2 km/h 0.5 km/h 61 % 0 mm
19:24 18.4 °C 11 °C 1018.2 hPa WNW 5.6 km/h 1.9 km/h 62 % 0 mm
19:29 18.3 °C 10.9 °C 1018.2 hPa WNW 3.7 km/h 1.8 km/h 62 % 0 mm
19:34 18.3 °C 11.3 °C 1018.2 hPa Calm     64 % 0 mm
19:39 18.2 °C 11.2 °C 1018.2 hPa Calm     64 % 0 mm
19:44 18.1 °C 11.2 °C 1018.2 hPa Calm     64 % 0 mm
19:49 18 °C 11.3 °C 1018.2 hPa Calm     65 % 0 mm
19:54 17.9 °C 11.2 °C 1018.2 hPa Calm     65 % 0 mm
19:59 17.7 °C 11.1 °C 1018.2 hPa Calm     65 % 0 mm
20:04 17.6 °C 11.1 °C 1018.2 hPa Calm     66 % 0 mm
20:09 17.3 °C 11.4 °C 1018.2 hPa Calm     68 % 0 mm
20:14 17.2 °C 11.4 °C 1018.2 hPa Calm     69 % 0 mm
20:19 16.9 °C 11.4 °C 1018.2 hPa Calm     70 % 0 mm
20:24 16.8 °C 11.3 °C 1018.2 hPa Calm     70 % 0 mm
20:29 16.7 °C 11.2 °C 1018.2 hPa Calm     70 % 0 mm
20:34 16.6 °C 11.3 °C 1018.2 hPa Calm     71 % 0 mm
20:39 16.4 °C 11.1 °C 1018.2 hPa Calm     71 % 0 mm
20:44 16.2 °C 11.2 °C 1018.2 hPa Calm     72 % 0 mm
20:49 16.1 °C 11.1 °C 1018.2 hPa Calm     72 % 0 mm
20:54 15.9 °C 11.1 °C 1018.5 hPa Calm     73 % 0 mm
20:59 15.7 °C 11.1 °C 1018.5 hPa Calm     74 % 0 mm
21:04 15.5 °C 11.1 °C 1018.5 hPa Calm     75 % 0 mm
21:09 15.3 °C 10.9 °C 1018.5 hPa Calm     75 % 0 mm
21:14 15.2 °C 10.9 °C 1018.8 hPa North 3.2 km/h 1.3 km/h 76 % 0 mm
21:19 15 °C 11 °C 1018.5 hPa North 3.7 km/h 1 km/h 77 % 0 mm
21:24 14.9 °C 10.9 °C 1018.5 hPa Calm     77 % 0 mm
21:29 14.8 °C 10.8 °C 1018.5 hPa Calm     77 % 0 mm
21:34 14.7 °C 10.9 °C 1018.5 hPa Calm     78 % 0 mm
21:39 14.6 °C 10.8 °C 1018.5 hPa Calm     78 % 0 mm
21:44 14.4 °C 10.7 °C 1018.5 hPa Calm     78 % 0 mm
21:49 14.3 °C 10.6 °C 1018.5 hPa Calm     78 % 0 mm
21:54 14.1 °C 10.5 °C 1018.5 hPa Calm     79 % 0 mm
21:59 14 °C 10.6 °C 1018.5 hPa Calm     80 % 0 mm
22:04 14 °C 10.6 °C 1018.8 hPa WNW 3.7 km/h 2.9 km/h 80 % 0 mm
22:09 14.1 °C 10.7 °C 1018.8 hPa WNW 3.7 km/h   80 % 0 mm
22:14 14.1 °C 10.7 °C 1018.5 hPa Calm     80 % 0 mm
22:19 14.1 °C 10.7 °C 1018.5 hPa Calm     80 % 0 mm
22:24 14 °C 10.6 °C 1018.5 hPa Calm     80 % 0 mm
22:29 13.9 °C 10.6 °C 1018.5 hPa Calm     80 % 0 mm
22:34 13.9 °C 10.6 °C 1018.5 hPa Calm     80 % 0 mm
22:39 14 °C 10.6 °C 1018.5 hPa Calm     80 % 0 mm
22:44 14.1 °C 10.7 °C 1018.5 hPa Calm     80 % 0 mm
22:49 14.1 °C 10.5 °C 1018.5 hPa Calm     79 % 0 mm
22:54 14.1 °C 10.5 °C 1018.5 hPa Calm     79 % 0 mm
22:59 14.1 °C 10.5 °C 1018.5 hPa Calm     79 % 0 mm
23:04 14.2 °C 10.6 °C 1018.5 hPa Calm     79 % 0 mm
23:09 14.2 °C 10.4 °C 1018.5 hPa Calm     78 % 0 mm
23:14 14.1 °C 10.3 °C 1018.2 hPa Calm     78 % 0 mm
23:19 14 °C 10.4 °C 1018.2 hPa Calm     79 % 0 mm
23:24 14 °C 10.4 °C 1018.2 hPa Calm     79 % 0 mm
23:29 13.9 °C 10.3 °C 1018.2 hPa Calm     79 % 0 mm
23:34 13.9 °C 10.3 °C 1018.2 hPa Calm     79 % 0 mm
23:39 13.9 °C 10.1 °C 1018.2 hPa Calm     78 % 0 mm
23:44 13.8 °C 10.1 °C 1018.2 hPa Calm     78 % 0 mm
23:49 13.8 °C 9.8 °C 1018.2 hPa WNW 1.9 km/h   77 % 0 mm
23:54 13.8 °C 9.6 °C 1018.2 hPa WNW 3.7 km/h 2.6 km/h 76 % 0 mm
23:59 13.8 °C 9.6 °C 1018.2 hPa WNW 5.6 km/h 3.2 km/h 76 % 0 mm
Ararat Weather
Compliments of Weather Underground - 2.25 mb
Click here to send mail.


ABOUT

Live weather data from Ararat, Victoria, Australia, 3377
Data uploaded from Cumulus every 5 minutes to Weather Underground.
This site then downloads the raw data for formatting and display.
Metric and imperial data can be displayed. Graphs and historical data available.
Includes Sun and Moon times and rain image live from BOM.

Check out Ararat Weather on Facebook, Twitter and Google +

Help support ongoing costs by checking out the ads





Follow @AraratWeather